Change the Weather History Date:

Thursday, January 31, 2013

  Actual Average (KP58) Record (KP58)
Temperature  
Mean Temperature 24 °F -  
Max Temperature 31 °F 28 °F 52 °F (2012)
Min Temperature 17 °F 18 °F 7 °F (2009)
Degree Days  
Heating Degree Days 41    
Moisture  
Dew Point 12 °F    
Average Humidity 66    
Maximum Humidity 87    
Minimum Humidity 53    
Precipitation  
Precipitation 0.00 in - - ()
Sea Level Pressure  
Sea Level Pressure 29.51 in    
Wind  
Wind Speed 22 mph (West)    
Max Wind Speed 29 mph    
Max Gust Speed 41 mph    
Visibility 10 miles    
Events Snow    
Averages and records for this station are not official NWS values.
T = Trace of Precipitation, MM = Missing Value Source: NWS Daily Summary

Daily Weather History Graph

Daily Weather History Graph

Search for Another Location

Airport or City:

Trip Planner

Search our weather history database for the weather conditions in past years. The results will help you decide how hot, cold, wet, or windy it might be!

Date:

Astronomy

Jan. 31, 2013 Rise Set
Actual Time 7:49 AM EST 5:41 PM EST
Civil Twilight 7:19 AM EST 6:12 PM EST
Nautical Twilight 6:44 AM EST 6:46 PM EST
Astronomical Twilight 6:10 AM EST 7:20 PM EST
Moon 10:55 PM EST (1/31) 9:37 AM EST (1/31)
Length of Visible Light 10h 53m
Length of Day
9h 52m
Waning Gibbous, 80% of the Moon is Illuminated
Jan 31
Waning Gibbous
Feb 3
Last Quarter
Feb 10
New
Feb 17
First Quarter
Feb 25
Full

Hourly Weather History & Observations

Time (EST) Temp. Windchill Dew Point Humidity Pressure Visibility Wind Dir Wind Speed Gust Speed Precip Events Conditions
12:13 AM 31.5 °F 17.6 °F 27.9 °F 87% 29.12 in 10.0 mi West 26.5 mph 35.7 mph N/A   Mostly Cloudy
12:34 AM 30.6 °F 18.2 °F 27.0 °F 86% 29.13 in 10.0 mi West 19.6 mph 33.4 mph N/A   Scattered Clouds
12:54 AM 30.2 °F 17.1 °F 25.5 °F 83% 29.15 in 10.0 mi West 21.9 mph 41.4 mph N/A   Scattered Clouds
1:13 AM 29.7 °F 17.8 °F 25.0 °F 83% 29.16 in 10.0 mi West 17.3 mph 33.4 mph N/A   Mostly Cloudy
1:34 AM 29.3 °F 15.3 °F 23.9 °F 80% 29.17 in 10.0 mi West 24.2 mph 35.7 mph N/A   Overcast
1:54 AM 27.7 °F 13.5 °F 20.3 °F 74% 29.19 in 10.0 mi West 23.0 mph 40.3 mph N/A   Mostly Cloudy
2:13 AM 27.0 °F 11.0 °F 18.3 °F 70% 29.20 in 10.0 mi WNW 28.8 mph 40.3 mph N/A   Mostly Cloudy
2:34 AM 27.0 °F 12.8 °F 18.1 °F 69% 29.22 in 10.0 mi West 21.9 mph 38.0 mph N/A   Overcast
2:54 AM 26.6 °F 11.7 °F 18.3 °F 71% 29.23 in 10.0 mi West 24.2 mph 34.5 mph N/A   Overcast
3:14 AM 26.6 °F 12.0 °F 19.0 °F 73% 29.24 in 10.0 mi West 23.0 mph 31.1 mph N/A   Overcast
3:34 AM 26.2 °F 10.9 °F 18.3 °F 72% 29.25 in 10.0 mi West 25.3 mph 40.3 mph N/A   Overcast
3:54 AM 25.9 °F 10.7 °F 19.2 °F 76% 29.26 in 10.0 mi West 24.2 mph 33.4 mph N/A   Overcast
4:14 AM 25.2 °F 10.1 °F 18.1 °F 75% 29.27 in 10.0 mi West 23.0 mph 35.7 mph N/A   Overcast
4:34 AM 24.4 °F 8.8 °F 17.2 °F 74% 29.29 in 10.0 mi West 24.2 mph 34.5 mph N/A Snow Light Snow
4:53 AM 24.3 °F 8.6 °F 17.1 °F 74% 29.30 in 10.0 mi West 24.2 mph 33.4 mph N/A   Overcast
5:14 AM 23.9 °F 7.5 °F 16.3 °F 73% 29.31 in 10.0 mi West 26.5 mph 35.7 mph N/A   Overcast
5:34 AM 23.7 °F 8.2 °F 15.8 °F 72% 29.33 in 5.0 mi West 23.0 mph 33.4 mph N/A Snow Light Snow
5:53 AM 23.5 °F 7.0 °F 16.0 °F 73% 29.34 in 10.0 mi West 26.5 mph 34.5 mph N/A Snow Light Snow
6:14 AM 23.0 °F 7.2 °F 15.3 °F 72% 29.36 in 10.0 mi West 23.0 mph 38.0 mph N/A Snow Light Snow
6:34 AM 23.0 °F 6.0 °F 15.4 °F 73% 29.37 in 10.0 mi West 27.6 mph 38.0 mph N/A Snow Light Snow
6:54 AM 22.3 °F 5.9 °F 14.0 °F 71% 29.39 in 10.0 mi West 24.2 mph 33.4 mph N/A Snow Light Snow
7:14 AM 22.1 °F 5.1 °F 13.1 °F 68% 29.40 in 10.0 mi West 26.5 mph 33.4 mph N/A   Overcast
7:34 AM 21.9 °F 6.9 °F 13.1 °F 69% 29.42 in 10.0 mi West 19.6 mph 29.9 mph N/A   Overcast
7:54 AM 21.4 °F 6.6 °F 11.8 °F 67% 29.43 in 10.0 mi West 18.4 mph 32.2 mph N/A   Overcast
8:14 AM 21.6 °F 6.5 °F 12.2 °F 67% 29.45 in 10.0 mi West 19.6 mph 26.5 mph N/A   Overcast
8:34 AM 21.6 °F 5.3 °F 10.4 °F 62% 29.46 in 10.0 mi West 23.0 mph 39.1 mph N/A   Overcast
8:54 AM 21.7 °F 5.2 °F 9.3 °F 59% 29.47 in 10.0 mi WNW 24.2 mph 34.5 mph N/A   Overcast
9:14 AM 21.9 °F 5.5 °F 11.3 °F 64% 29.48 in 10.0 mi West 24.2 mph 31.1 mph N/A   Overcast
9:34 AM 21.7 °F 5.2 °F 11.3 °F 64% 29.49 in 10.0 mi West 24.2 mph 32.2 mph N/A   Overcast
9:54 AM 22.1 °F 7.6 °F 10.2 °F 60% 29.50 in 10.0 mi West 18.4 mph 34.5 mph N/A   Overcast
10:34 AM 22.5 °F 5.9 °F 12.9 °F 67% 29.52 in 10.0 mi West 25.3 mph 34.5 mph N/A   Overcast
10:54 AM 23.0 °F 6.9 °F 12.6 °F 64% 29.53 in 10.0 mi West 24.2 mph 34.5 mph N/A   Overcast
11:14 AM 22.3 °F 5.9 °F 10.6 °F 61% 29.54 in 10.0 mi West 24.2 mph 34.5 mph N/A   Mostly Cloudy
11:34 AM 22.3 °F 6.3 °F 10.9 °F 62% 29.55 in 7.0 mi West 23.0 mph 33.4 mph N/A   Overcast
11:59 AM 22.8 °F 6.7 °F 10.9 °F 60% 29.55 in 10.0 mi West 24.2 mph 31.1 mph N/A   Overcast
12:14 PM 22.8 °F 6.3 °F 10.2 °F 59% 29.55 in 10.0 mi West 25.3 mph 32.2 mph N/A   Overcast
12:34 PM 22.6 °F 6.4 °F 9.5 °F 57% 29.56 in 10.0 mi West 24.2 mph 31.1 mph N/A   Overcast
12:54 PM 21.9 °F 5.1 °F 10.2 °F 61% 29.57 in 10.0 mi West 25.3 mph 32.2 mph N/A   Overcast
1:14 PM 21.9 °F 5.5 °F 8.8 °F 57% 29.57 in 7.0 mi West 24.2 mph 34.5 mph N/A   Overcast
1:35 PM 22.6 °F 6.1 °F 9.9 °F 58% 29.57 in 10.0 mi West 25.3 mph 31.1 mph N/A   Overcast
1:54 PM 22.1 °F 6.4 °F 8.2 °F 55% 29.58 in 10.0 mi West 21.9 mph 31.1 mph N/A   Overcast
2:14 PM 22.3 °F 5.9 °F 9.3 °F 58% 29.59 in 7.0 mi West 24.2 mph 35.7 mph N/A   Overcast
2:35 PM 22.6 °F 7.5 °F 8.8 °F 55% 29.59 in 10.0 mi West 20.7 mph 31.1 mph N/A   Overcast
2:54 PM 22.1 °F 7.6 °F 9.0 °F 57% 29.60 in 10.0 mi West 18.4 mph 29.9 mph N/A   Overcast
3:14 PM 22.3 °F 7.0 °F 8.8 °F 56% 29.62 in 10.0 mi West 20.7 mph 31.1 mph N/A   Overcast
3:35 PM 21.7 °F 8.0 °F 9.3 °F 59% 29.63 in 10.0 mi West 16.1 mph 28.8 mph N/A   Overcast
3:54 PM 21.6 °F 7.3 °F 9.0 °F 58% 29.63 in 10.0 mi West 17.3 mph 28.8 mph N/A   Overcast
4:14 PM 21.6 °F 5.0 °F 7.7 °F 55% 29.64 in 10.0 mi West 24.2 mph 33.4 mph N/A   Overcast
4:35 PM 21.2 °F 6.4 °F 8.8 °F 59% 29.65 in 10.0 mi West 18.4 mph 28.8 mph N/A   Overcast
4:54 PM 21.2 °F 5.2 °F 7.7 °F 56% 29.66 in 10.0 mi West 21.9 mph 32.2 mph N/A   Overcast
5:14 PM 20.8 °F 5.9 °F 7.3 °F 56% 29.66 in 10.0 mi West 18.4 mph 26.5 mph N/A   Overcast
5:35 PM 20.5 °F 6.9 °F 7.7 °F 58% 29.67 in 10.0 mi West 15.0 mph 31.1 mph N/A   Overcast
5:54 PM 20.3 °F 6.1 °F 7.2 °F 57% 29.68 in 10.0 mi West 16.1 mph 26.5 mph N/A   Overcast
6:14 PM 20.1 °F 4.6 °F 7.0 °F 57% 29.69 in 10.0 mi West 19.6 mph 28.8 mph N/A   Overcast
6:34 PM 20.1 °F 5.9 °F 5.9 °F 54% 29.70 in 10.0 mi West 16.1 mph 24.2 mph N/A   Overcast
6:54 PM 19.8 °F 5.4 °F 5.5 °F 54% 29.70 in 10.0 mi West 16.1 mph 20.7 mph N/A   Overcast
7:14 PM 19.8 °F 3.7 °F 5.2 °F 53% 29.71 in 10.0 mi West 20.7 mph 25.3 mph N/A   Overcast
7:34 PM 19.4 °F 7.2 °F 6.1 °F 56% 29.72 in 10.0 mi WNW 11.5 mph 21.9 mph N/A   Overcast
7:54 PM 19.4 °F 5.5 °F 6.8 °F 58% 29.73 in 10.0 mi West 15.0 mph 24.2 mph N/A   Overcast
8:15 PM 19.0 °F 5.6 °F 7.7 °F 61% 29.74 in 10.0 mi West 13.8 mph 23.0 mph N/A   Overcast
8:34 PM 18.5 °F 2.9 °F 7.7 °F 63% 29.74 in 10.0 mi West 18.4 mph 26.5 mph N/A   Overcast
8:55 PM 18.1 °F 4.4 °F 8.4 °F 66% 29.75 in 10.0 mi West 13.8 mph 21.9 mph N/A   Mostly Cloudy
9:14 PM 18.1 °F 3.9 °F 8.8 °F 67% 29.75 in 10.0 mi WNW 15.0 mph 21.9 mph N/A   Mostly Cloudy
9:34 PM 18.1 °F 3.9 °F 8.4 °F 66% 29.76 in 10.0 mi WNW 15.0 mph - N/A   Overcast
10:14 PM 17.8 °F 4.6 °F 8.2 °F 66% 29.77 in 10.0 mi West 12.7 mph 26.5 mph N/A   Overcast
10:34 PM 17.6 °F 1.7 °F 9.3 °F 70% 29.78 in 10.0 mi West 18.4 mph 23.0 mph N/A   Overcast
10:54 PM 17.6 °F 1.7 °F 10.4 °F 73% 29.78 in 10.0 mi West 18.4 mph 23.0 mph N/A   Overcast
11:13 PM 17.2 °F 2.2 °F 11.3 °F 78% 29.78 in 7.0 mi West 16.1 mph 20.7 mph N/A Snow Light Snow
11:34 PM 17.2 °F 2.7 °F 12.2 °F 81% 29.78 in 3.0 mi West 15.0 mph 23.0 mph N/A Snow Light Snow
11:54 PM 17.1 °F 2.5 °F 12.2 °F 81% 29.79 in 2.5 mi West 15.0 mph 20.7 mph N/A Snow Light Snow